Time,TemperatureF,DewpointF,PressureIn,WindDirection,WindDirectionDegrees,WindSpeedMPH,WindSpeedGustMPH,Humidity,HourlyPrecipIn,Conditions,Clouds,dailyrainin,SoftwareType,DateUTC
2013-12-04 00:02:00,35.8,25.5,29.97,West,278,0.0,0.9,66,0.00,,,0.00,meteobridge,2013-12-04 08:02:00,
2013-12-04 00:08:00,36.0,25.3,29.97,West,278,0.0,0.9,65,0.00,,,0.00,meteobridge,2013-12-04 08:08:00,
2013-12-04 00:14:00,36.0,25.3,29.97,West,278,0.0,0.9,65,0.00,,,0.00,meteobridge,2013-12-04 08:14:00,
2013-12-04 00:21:00,35.6,25.3,29.97,West,278,0.0,0.0,66,0.00,,,0.00,meteobridge,2013-12-04 08:21:00,
2013-12-04 00:29:00,34.5,24.6,29.97,West,278,0.0,0.0,67,0.00,,,0.00,meteobridge,2013-12-04 08:29:00,
2013-12-04 00:35:00,34.3,25.5,29.97,West,278,0.0,0.0,70,0.00,,,0.00,meteobridge,2013-12-04 08:35:00,
2013-12-04 00:41:00,34.2,25.3,29.98,West,278,0.0,0.0,70,0.00,,,0.00,meteobridge,2013-12-04 08:41:00,
2013-12-04 00:48:00,34.0,25.5,29.98,West,279,0.0,0.9,71,0.00,,,0.00,meteobridge,2013-12-04 08:48:00,
2013-12-04 00:54:00,33.8,25.7,29.97,West,279,0.0,0.0,72,0.00,,,0.00,meteobridge,2013-12-04 08:54:00,
2013-12-04 01:00:00,33.4,26.1,29.97,West,278,0.0,0.9,74,0.00,,,0.00,meteobridge,2013-12-04 09:00:00,
2013-12-04 01:14:00,33.3,25.5,29.98,West,278,0.0,0.9,73,0.00,,,0.00,meteobridge,2013-12-04 09:14:00,
2013-12-04 01:21:00,33.3,25.2,29.98,West,278,0.0,0.0,72,0.00,,,0.00,meteobridge,2013-12-04 09:21:00,
2013-12-04 01:27:00,33.1,25.3,29.98,West,278,0.0,0.0,73,0.00,,,0.00,meteobridge,2013-12-04 09:27:00,
2013-12-04 01:33:00,32.7,25.0,29.98,West,278,0.0,0.0,73,0.00,,,0.00,meteobridge,2013-12-04 09:33:00,
2013-12-04 01:39:00,32.5,24.8,29.98,West,278,0.0,0.0,73,0.00,,,0.00,meteobridge,2013-12-04 09:39:00,
2013-12-04 01:46:00,32.7,24.6,29.98,West,278,0.0,0.9,72,0.00,,,0.00,meteobridge,2013-12-04 09:46:00,
2013-12-04 01:52:00,32.7,25.0,29.98,West,276,0.9,0.9,73,0.00,,,0.00,meteobridge,2013-12-04 09:52:00,
2013-12-04 01:58:00,33.1,25.0,29.99,WSW,258,0.0,0.9,72,0.00,,,0.00,meteobridge,2013-12-04 09:58:00,
2013-12-04 02:04:00,33.3,24.8,29.99,WSW,255,0.0,0.0,71,0.00,,,0.00,meteobridge,2013-12-04 10:04:00,
2013-12-04 02:10:00,33.3,24.8,29.99,WSW,255,0.0,0.9,71,0.00,,,0.00,meteobridge,2013-12-04 10:10:00,
2013-12-04 02:16:00,33.1,25.0,29.99,West,262,0.0,0.9,72,0.00,,,0.00,meteobridge,2013-12-04 10:16:00,
2013-12-04 02:23:00,32.9,24.8,30.00,West,262,0.0,0.0,72,0.00,,,0.00,meteobridge,2013-12-04 10:23:00,
2013-12-04 02:29:00,32.7,24.6,30.00,East,82,0.9,2.0,72,0.00,,,0.00,meteobridge,2013-12-04 10:29:00,
2013-12-04 02:35:00,32.5,24.8,30.00,East,96,0.0,0.9,73,0.00,,,0.00,meteobridge,2013-12-04 10:35:00,
2013-12-04 02:41:00,31.8,24.4,30.00,NNE,13,0.0,0.0,74,0.00,,,0.00,meteobridge,2013-12-04 10:41:00,
2013-12-04 02:47:00,31.6,25.0,30.00,NNE,13,0.0,0.0,76,0.00,,,0.00,meteobridge,2013-12-04 10:47:00,
2013-12-04 02:54:00,31.6,25.0,30.00,NE,44,0.0,0.9,76,0.00,,,0.00,meteobridge,2013-12-04 10:54:00,
2013-12-04 03:00:00,31.5,24.4,30.00,NE,44,0.0,0.0,75,0.00,,,0.00,meteobridge,2013-12-04 11:00:00,
2013-12-04 03:06:00,31.1,24.8,30.00,NE,44,0.0,0.0,77,0.00,,,0.00,meteobridge,2013-12-04 11:06:00,
2013-12-04 03:12:00,30.9,24.8,30.00,SSE,163,0.0,0.0,78,0.00,,,0.00,meteobridge,2013-12-04 11:12:00,
2013-12-04 03:19:00,30.7,25.0,30.00,WSW,253,0.0,2.0,79,0.00,,,0.00,meteobridge,2013-12-04 11:19:00,
2013-12-04 03:25:00,30.6,24.8,30.00,NNW,329,0.0,0.9,79,0.00,,,0.00,meteobridge,2013-12-04 11:25:00,
2013-12-04 03:31:00,30.6,24.8,30.00,NNW,344,0.0,0.9,79,0.00,,,0.00,meteobridge,2013-12-04 11:31:00,
2013-12-04 03:37:00,30.6,25.2,30.00,NW,305,0.0,0.9,80,0.00,,,0.00,meteobridge,2013-12-04 11:37:00,
2013-12-04 03:43:00,30.6,24.8,30.01,NW,307,0.0,0.0,79,0.00,,,0.00,meteobridge,2013-12-04 11:43:00,
2013-12-04 03:50:00,30.2,24.8,30.00,NW,307,0.0,0.0,80,0.00,,,0.00,meteobridge,2013-12-04 11:50:00,
2013-12-04 03:56:00,30.0,25.0,30.01,NW,307,0.0,0.0,81,0.00,,,0.00,meteobridge,2013-12-04 11:56:00,
2013-12-04 04:02:00,29.8,24.8,30.00,NW,306,0.0,0.0,81,0.00,,,0.00,meteobridge,2013-12-04 12:02:00,
2013-12-04 04:08:00,29.7,24.8,30.01,NW,306,0.0,0.0,82,0.00,,,0.00,meteobridge,2013-12-04 12:08:00,
2013-12-04 04:14:00,29.7,24.8,30.01,NW,306,0.0,0.0,82,0.00,,,0.00,meteobridge,2013-12-04 12:14:00,
2013-12-04 04:20:00,29.7,24.8,30.01,NW,306,0.0,0.9,82,0.00,,,0.00,meteobridge,2013-12-04 12:20:00,
2013-12-04 04:27:00,29.7,24.8,30.01,NW,307,0.0,0.0,82,0.00,,,0.00,meteobridge,2013-12-04 12:27:00,
2013-12-04 04:33:00,29.7,24.8,30.01,NW,309,0.0,0.9,82,0.00,,,0.00,meteobridge,2013-12-04 12:33:00,
2013-12-04 04:39:00,29.5,24.4,30.01,NW,309,0.0,0.0,81,0.00,,,0.00,meteobridge,2013-12-04 12:39:00,
2013-12-04 04:46:00,29.1,24.3,30.01,NW,308,0.0,0.0,82,0.00,,,0.00,meteobridge,2013-12-04 12:46:00,
2013-12-04 04:52:00,28.9,24.1,30.01,NW,308,0.0,0.0,82,0.00,,,0.00,meteobridge,2013-12-04 12:52:00,
2013-12-04 04:58:00,29.1,24.6,30.02,ESE,108,2.0,2.0,83,0.00,,,0.00,meteobridge,2013-12-04 12:58:00,
2013-12-04 05:04:00,29.5,24.6,30.02,East,99,0.0,0.0,82,0.00,,,0.00,meteobridge,2013-12-04 13:04:00,
2013-12-04 05:10:00,29.7,24.6,30.01,East,99,0.0,0.0,81,0.00,,,0.00,meteobridge,2013-12-04 13:10:00,
2013-12-04 05:17:00,29.7,24.6,30.02,NW,311,0.0,0.0,81,0.00,,,0.00,meteobridge,2013-12-04 13:17:00,
2013-12-04 05:23:00,29.8,24.4,30.02,NW,311,0.0,0.0,80,0.00,,,0.00,meteobridge,2013-12-04 13:23:00,
2013-12-04 05:29:00,29.8,24.4,30.02,West,259,0.0,0.9,80,0.00,,,0.00,meteobridge,2013-12-04 13:29:00,
2013-12-04 05:35:00,29.7,24.3,30.02,West,261,0.0,0.9,80,0.00,,,0.00,meteobridge,2013-12-04 13:35:00,
2013-12-04 05:41:00,29.8,24.1,30.02,West,281,0.0,0.0,79,0.00,,,0.00,meteobridge,2013-12-04 13:41:00,
2013-12-04 05:48:00,29.7,24.3,30.02,NNW,337,0.0,0.9,80,0.00,,,0.00,meteobridge,2013-12-04 13:48:00,
2013-12-04 05:54:00,29.7,24.3,30.02,NNW,337,0.0,0.0,80,0.00,,,0.00,meteobridge,2013-12-04 13:54:00,
2013-12-04 06:00:00,29.5,24.1,30.02,NNW,337,0.0,0.0,80,0.00,,,0.00,meteobridge,2013-12-04 14:00:00,
2013-12-04 06:06:00,29.3,23.9,30.03,NNW,337,0.0,0.0,80,0.00,,,0.00,meteobridge,2013-12-04 14:06:00,
2013-12-04 06:12:00,29.1,24.1,30.03,NNW,336,0.0,0.9,81,0.00,,,0.00,meteobridge,2013-12-04 14:12:00,
2013-12-04 06:18:00,29.1,24.1,30.03,WNW,302,0.0,0.9,81,0.00,,,0.00,meteobridge,2013-12-04 14:18:00,
2013-12-04 06:25:00,29.1,24.1,30.03,ENE,75,0.0,0.9,81,0.00,,,0.00,meteobridge,2013-12-04 14:25:00,
2013-12-04 06:31:00,29.1,24.1,30.03,ENE,75,0.0,0.0,81,0.00,,,0.00,meteobridge,2013-12-04 14:31:00,
2013-12-04 06:37:00,28.9,24.1,30.04,SW,236,0.0,0.0,82,0.00,,,0.00,meteobridge,2013-12-04 14:37:00,
2013-12-04 06:43:00,28.9,24.1,30.04,SW,236,0.0,0.0,82,0.00,,,0.00,meteobridge,2013-12-04 14:43:00,
2013-12-04 06:50:00,28.9,24.1,30.04,WSW,238,0.0,0.0,82,0.00,,,0.00,meteobridge,2013-12-04 14:50:00,
2013-12-04 06:56:00,28.9,23.9,30.05,WSW,238,0.0,0.0,81,0.00,,,0.00,meteobridge,2013-12-04 14:56:00,
2013-12-04 07:02:00,28.8,23.9,30.05,WSW,238,0.0,0.0,82,0.00,,,0.00,meteobridge,2013-12-04 15:02:00,
2013-12-04 07:08:00,29.1,24.3,30.05,WSW,238,0.0,0.9,82,0.00,,,0.00,meteobridge,2013-12-04 15:08:00,
2013-12-04 07:14:00,28.9,24.1,30.05,WSW,238,0.0,0.0,82,0.00,,,0.00,meteobridge,2013-12-04 15:14:00,
2013-12-04 07:21:00,28.9,23.9,30.05,WSW,238,0.0,0.9,81,0.00,,,0.00,meteobridge,2013-12-04 15:21:00,
2013-12-04 07:27:00,29.5,24.4,30.05,WSW,238,0.0,0.0,81,0.00,,,0.00,meteobridge,2013-12-04 15:27:00,
2013-12-04 07:33:00,30.0,24.6,30.06,WSW,238,0.0,0.0,80,0.00,,,0.00,meteobridge,2013-12-04 15:33:00,
2013-12-04 07:39:00,31.3,25.5,30.06,WSW,238,0.0,0.0,79,0.00,,,0.00,meteobridge,2013-12-04 15:39:00,
2013-12-04 07:45:00,31.6,25.5,30.06,WSW,238,0.0,0.0,78,0.00,,,0.00,meteobridge,2013-12-04 15:45:00,
2013-12-04 07:52:00,32.4,25.9,30.06,WSW,238,0.0,0.0,77,0.00,,,0.00,meteobridge,2013-12-04 15:52:00,
2013-12-04 07:58:00,33.3,26.6,30.06,WSW,238,0.0,0.0,76,0.00,,,0.00,meteobridge,2013-12-04 15:58:00,
2013-12-04 08:04:00,34.9,27.1,30.06,SW,234,0.0,0.0,73,0.00,,,0.00,meteobridge,2013-12-04 16:04:00,
2013-12-04 08:10:00,35.8,27.0,30.06,SW,235,0.0,0.9,70,0.00,,,0.00,meteobridge,2013-12-04 16:10:00,
2013-12-04 08:16:00,36.7,28.2,30.06,SW,235,0.0,0.0,71,0.00,,,0.00,meteobridge,2013-12-04 16:16:00,
2013-12-04 08:23:00,38.7,27.9,30.06,SW,235,0.0,0.0,65,0.00,,,0.00,meteobridge,2013-12-04 16:23:00,
2013-12-04 08:29:00,40.1,29.3,30.07,SW,234,0.0,0.0,65,0.00,,,0.00,meteobridge,2013-12-04 16:29:00,
2013-12-04 08:35:00,42.1,27.1,30.07,SW,234,0.0,0.0,55,0.00,,,0.00,meteobridge,2013-12-04 16:35:00,
2013-12-04 08:41:00,42.6,27.1,30.08,SW,234,0.0,0.0,54,0.00,,,0.00,meteobridge,2013-12-04 16:41:00,
2013-12-04 08:47:00,42.4,25.5,30.08,NW,304,0.0,0.9,51,0.00,,,0.00,meteobridge,2013-12-04 16:47:00,
2013-12-04 08:53:00,42.6,26.2,30.08,ENE,61,0.9,0.9,52,0.00,,,0.00,meteobridge,2013-12-04 16:53:00,
2013-12-04 09:00:00,43.3,25.0,30.08,NW,306,2.0,2.9,48,0.00,,,0.00,meteobridge,2013-12-04 17:00:00,
2013-12-04 09:06:00,43.5,23.0,30.08,WNW,302,2.9,6.0,44,0.00,,,0.00,meteobridge,2013-12-04 17:06:00,
2013-12-04 09:12:00,43.7,22.1,30.07,West,279,2.0,4.9,42,0.00,,,0.00,meteobridge,2013-12-04 17:12:00,
2013-12-04 09:18:00,43.5,21.4,30.08,WNW,295,2.0,6.0,41,0.00,,,0.00,meteobridge,2013-12-04 17:18:00,
2013-12-04 09:24:00,43.9,21.7,30.08,West,281,2.0,6.0,41,0.00,,,0.00,meteobridge,2013-12-04 17:24:00,
2013-12-04 09:30:00,44.1,21.2,30.08,West,281,4.9,6.0,40,0.00,,,0.00,meteobridge,2013-12-04 17:30:00,
2013-12-04 09:36:00,43.9,21.2,30.09,NW,320,4.0,6.9,40,0.00,,,0.00,meteobridge,2013-12-04 17:36:00,
2013-12-04 09:42:00,43.9,21.2,30.09,WNW,282,2.9,6.0,40,0.00,,,0.00,meteobridge,2013-12-04 17:42:00,
2013-12-04 09:48:00,44.1,20.7,30.09,West,272,4.0,6.0,39,0.00,,,0.00,meteobridge,2013-12-04 17:48:00,
2013-12-04 09:54:00,44.2,20.3,30.09,West,279,2.9,6.9,38,0.00,,,0.00,meteobridge,2013-12-04 17:54:00,
2013-12-04 10:00:00,44.4,19.8,30.09,NW,321,2.9,6.0,37,0.00,,,0.00,meteobridge,2013-12-04 18:00:00,
2013-12-04 10:06:00,44.4,19.8,30.09,North,352,2.0,4.0,37,0.00,,,0.00,meteobridge,2013-12-04 18:06:00,
2013-12-04 10:12:00,45.1,19.8,30.09,NW,321,0.9,4.0,36,0.00,,,0.00,meteobridge,2013-12-04 18:12:00,
2013-12-04 10:18:00,45.5,19.4,30.10,West,277,2.0,6.9,35,0.00,,,0.00,meteobridge,2013-12-04 18:18:00,
2013-12-04 10:24:00,46.0,18.5,30.10,NW,305,4.0,6.9,33,0.00,,,0.00,meteobridge,2013-12-04 18:24:00,
2013-12-04 10:30:00,46.0,17.8,30.10,WNW,295,0.0,6.9,32,0.00,,,0.00,meteobridge,2013-12-04 18:30:00,
2013-12-04 10:36:00,46.4,17.4,30.10,West,277,2.9,4.9,31,0.00,,,0.00,meteobridge,2013-12-04 18:36:00,
2013-12-04 10:42:00,46.6,17.6,30.10,WNW,289,2.0,4.0,31,0.00,,,0.00,meteobridge,2013-12-04 18:42:00,
2013-12-04 10:49:00,47.1,18.0,30.10,WSW,256,2.0,4.9,31,0.00,,,0.00,meteobridge,2013-12-04 18:49:00,
2013-12-04 10:55:00,46.9,17.1,30.10,West,264,4.0,6.0,30,0.00,,,0.00,meteobridge,2013-12-04 18:55:00,
2013-12-04 11:01:00,47.3,17.4,30.10,WNW,302,4.9,6.0,30,0.00,,,0.00,meteobridge,2013-12-04 19:01:00,
2013-12-04 11:07:00,47.3,17.4,30.09,SW,229,2.9,4.0,30,0.00,,,0.00,meteobridge,2013-12-04 19:07:00,
2013-12-04 11:13:00,47.3,16.7,30.09,West,273,0.9,4.0,29,0.00,,,0.00,meteobridge,2013-12-04 19:13:00,
2013-12-04 11:19:00,47.5,16.9,30.09,SW,216,0.0,2.0,29,0.00,,,0.00,meteobridge,2013-12-04 19:19:00,
2013-12-04 11:25:00,48.2,16.5,30.09,West,274,2.9,4.9,28,0.00,,,0.00,meteobridge,2013-12-04 19:25:00,
2013-12-04 11:31:00,48.4,17.6,30.09,SSE,162,0.9,2.9,29,0.00,,,0.00,meteobridge,2013-12-04 19:31:00,
2013-12-04 11:37:00,48.4,17.6,30.09,NNW,333,0.0,4.0,29,0.00,,,0.00,meteobridge,2013-12-04 19:37:00,
2013-12-04 11:43:00,48.9,19.6,30.08,East,94,2.0,2.0,31,0.00,,,0.00,meteobridge,2013-12-04 19:43:00,
2013-12-04 11:49:00,49.5,20.8,30.08,ENE,78,0.0,0.9,32,0.00,,,0.00,meteobridge,2013-12-04 19:49:00,
2013-12-04 11:55:00,48.6,17.8,30.08,NE,36,2.0,4.9,29,0.00,,,0.00,meteobridge,2013-12-04 19:55:00,
2013-12-04 12:01:00,48.0,17.2,30.08,East,86,2.9,6.0,29,0.00,,,0.00,meteobridge,2013-12-04 20:01:00,
2013-12-04 12:07:00,48.4,18.3,30.08,SSE,148,2.9,4.9,30,0.00,,,0.00,meteobridge,2013-12-04 20:07:00,
2013-12-04 12:13:00,48.9,18.0,30.08,WSW,248,0.9,4.0,29,0.00,,,0.00,meteobridge,2013-12-04 20:13:00,
2013-12-04 12:19:00,49.3,17.6,30.07,NE,53,0.9,4.9,28,0.00,,,0.00,meteobridge,2013-12-04 20:19:00,
2013-12-04 12:25:00,48.6,16.2,30.07,East,92,4.9,6.0,27,0.00,,,0.00,meteobridge,2013-12-04 20:25:00,
2013-12-04 12:31:00,48.0,17.2,30.07,ENE,70,0.0,2.0,29,0.00,,,0.00,meteobridge,2013-12-04 20:31:00,
2013-12-04 12:37:00,48.4,16.7,30.06,ENE,78,4.0,6.0,28,0.00,,,0.00,meteobridge,2013-12-04 20:37:00,
2013-12-04 12:43:00,48.4,17.6,30.06,NE,54,0.9,6.9,29,0.00,,,0.00,meteobridge,2013-12-04 20:43:00,
2013-12-04 12:49:00,48.9,18.0,30.06,NW,312,0.9,2.0,29,0.00,,,0.00,meteobridge,2013-12-04 20:49:00,
2013-12-04 12:55:00,49.5,17.8,30.06,NE,54,2.0,4.0,28,0.00,,,0.00,meteobridge,2013-12-04 20:55:00,
2013-12-04 13:02:00,49.1,17.4,30.06,East,85,6.9,6.9,28,0.00,,,0.00,meteobridge,2013-12-04 21:02:00,
2013-12-04 13:08:00,48.7,17.1,30.05,ESE,115,8.1,8.1,28,0.00,,,0.00,meteobridge,2013-12-04 21:08:00,
2013-12-04 13:14:00,48.9,17.2,30.05,SE,125,2.9,6.0,28,0.00,,,0.00,meteobridge,2013-12-04 21:14:00,
2013-12-04 13:20:00,49.3,17.6,30.05,ENE,60,2.0,2.9,28,0.00,,,0.00,meteobridge,2013-12-04 21:20:00,
2013-12-04 13:26:00,49.5,17.8,30.05,SSE,156,0.0,2.9,28,0.00,,,0.00,meteobridge,2013-12-04 21:26:00,
2013-12-04 13:32:00,49.6,17.1,30.05,SSE,148,0.9,6.0,27,0.00,,,0.00,meteobridge,2013-12-04 21:32:00,
2013-12-04 13:38:00,49.5,16.9,30.04,ENE,69,0.0,2.9,27,0.00,,,0.00,meteobridge,2013-12-04 21:38:00,
2013-12-04 13:44:00,49.6,17.1,30.04,NNW,346,0.0,2.0,27,0.00,,,0.00,meteobridge,2013-12-04 21:44:00,
2013-12-04 13:50:00,50.2,17.4,30.04,West,259,0.9,2.0,27,0.00,,,0.00,meteobridge,2013-12-04 21:50:00,
2013-12-04 13:56:00,50.4,17.6,30.04,WSW,252,0.9,2.0,27,0.00,,,0.00,meteobridge,2013-12-04 21:56:00,
2013-12-04 14:03:00,50.7,17.1,30.04,East,86,0.0,2.9,26,0.00,,,0.00,meteobridge,2013-12-04 22:03:00,
2013-12-04 14:09:00,50.5,16.9,30.04,East,101,0.9,2.0,26,0.00,,,0.00,meteobridge,2013-12-04 22:09:00,
2013-12-04 14:15:00,50.2,17.4,30.04,ENE,70,0.0,0.9,27,0.00,,,0.00,meteobridge,2013-12-04 22:15:00,
2013-12-04 14:21:00,50.4,17.6,30.04,SSE,156,0.0,0.9,27,0.00,,,0.00,meteobridge,2013-12-04 22:21:00,
2013-12-04 14:27:00,50.4,17.6,30.04,East,99,2.0,10.1,27,0.00,,,0.00,meteobridge,2013-12-04 22:27:00,
2013-12-04 14:33:00,50.4,17.6,30.04,East,83,2.9,6.0,27,0.00,,,0.00,meteobridge,2013-12-04 22:33:00,
2013-12-04 14:39:00,49.8,17.2,30.04,ENE,77,4.0,10.1,27,0.00,,,0.00,meteobridge,2013-12-04 22:39:00,
2013-12-04 14:45:00,49.6,17.8,30.04,ESE,113,2.0,4.9,28,0.00,,,0.00,meteobridge,2013-12-04 22:45:00,
2013-12-04 14:51:00,49.6,17.1,30.04,ESE,113,2.9,6.9,27,0.00,,,0.00,meteobridge,2013-12-04 22:51:00,
2013-12-04 14:57:00,49.8,18.0,30.04,East,99,2.0,4.0,28,0.00,,,0.00,meteobridge,2013-12-04 22:57:00,
2013-12-04 15:03:00,50.0,17.2,30.04,East,96,6.0,6.0,27,0.00,,,0.00,meteobridge,2013-12-04 23:03:00,
2013-12-04 15:09:00,49.6,17.8,30.04,East,99,2.9,2.9,28,0.00,,,0.00,meteobridge,2013-12-04 23:09:00,
2013-12-04 15:15:00,49.6,17.1,30.04,East,85,4.0,8.9,27,0.00,,,0.00,meteobridge,2013-12-04 23:15:00,
2013-12-04 15:21:00,49.3,15.8,30.04,ENE,57,4.0,6.9,26,0.00,,,0.00,meteobridge,2013-12-04 23:21:00,
2013-12-04 15:27:00,48.9,16.3,30.04,East,89,4.0,4.9,27,0.00,,,0.00,meteobridge,2013-12-04 23:27:00,
2013-12-04 15:33:00,48.7,16.2,30.04,ENE,77,4.0,6.0,27,0.00,,,0.00,meteobridge,2013-12-04 23:33:00,
2013-12-04 15:39:00,48.7,16.2,30.04,East,81,2.9,10.1,27,0.00,,,0.00,meteobridge,2013-12-04 23:39:00,
2013-12-04 15:45:00,48.6,16.2,30.04,East,96,2.0,6.0,27,0.00,,,0.00,meteobridge,2013-12-04 23:45:00,
2013-12-04 15:51:00,48.6,16.2,30.04,NE,52,4.0,6.0,27,0.00,,,0.00,meteobridge,2013-12-04 23:51:00,
2013-12-04 15:57:00,48.4,16.0,30.04,ENE,69,4.0,6.9,27,0.00,,,0.00,meteobridge,2013-12-04 23:57:00,
2013-12-04 16:03:00,48.0,15.6,30.04,East,79,4.9,6.9,27,0.00,,,0.00,meteobridge,2013-12-05 00:03:00,
2013-12-04 16:09:00,47.8,15.4,30.04,ENE,65,2.9,6.0,27,0.00,,,0.00,meteobridge,2013-12-05 00:09:00,
2013-12-04 16:15:00,47.7,15.3,30.04,ENE,74,4.9,6.9,27,0.00,,,0.00,meteobridge,2013-12-05 00:15:00,
2013-12-04 16:22:00,47.3,15.1,30.04,ENE,73,0.9,2.9,27,0.00,,,0.00,meteobridge,2013-12-05 00:22:00,
2013-12-04 16:28:00,46.9,14.7,30.04,ENE,68,0.0,4.9,27,0.00,,,0.00,meteobridge,2013-12-05 00:28:00,
2013-12-04 16:34:00,46.6,14.4,30.04,ENE,66,2.0,4.0,27,0.00,,,0.00,meteobridge,2013-12-05 00:34:00,
2013-12-04 16:40:00,46.0,14.7,30.04,ENE,75,2.9,4.0,28,0.00,,,0.00,meteobridge,2013-12-05 00:40:00,
2013-12-04 16:46:00,45.9,14.5,30.05,East,82,0.9,2.9,28,0.00,,,0.00,meteobridge,2013-12-05 00:46:00,
2013-12-04 16:52:00,45.3,14.9,30.05,ENE,72,0.0,0.9,29,0.00,,,0.00,meteobridge,2013-12-05 00:52:00,
2013-12-04 16:58:00,45.0,15.4,30.05,East,85,0.9,0.9,30,0.00,,,0.00,meteobridge,2013-12-05 00:58:00,
2013-12-04 17:05:00,44.4,15.6,30.05,East,85,0.0,0.0,31,0.00,,,0.00,meteobridge,2013-12-05 01:05:00,
2013-12-04 17:11:00,43.7,15.1,30.05,East,85,0.0,0.0,31,0.00,,,0.00,meteobridge,2013-12-05 01:11:00,
2013-12-04 17:17:00,43.2,15.3,30.05,East,85,0.0,0.0,32,0.00,,,0.00,meteobridge,2013-12-05 01:17:00,
2013-12-04 17:23:00,42.4,15.4,30.05,East,84,0.0,0.0,33,0.00,,,0.00,meteobridge,2013-12-05 01:23:00,
2013-12-04 17:30:00,41.5,13.8,30.05,East,85,0.0,0.0,32,0.00,,,0.00,meteobridge,2013-12-05 01:30:00,
2013-12-04 17:36:00,41.2,14.9,30.05,East,84,0.0,0.0,34,0.00,,,0.00,meteobridge,2013-12-05 01:36:00,
2013-12-04 17:42:00,40.6,15.8,30.05,East,85,0.0,0.0,36,0.00,,,0.00,meteobridge,2013-12-05 01:42:00,
2013-12-04 17:48:00,40.6,15.1,30.06,SW,220,0.0,0.0,35,0.00,,,0.00,meteobridge,2013-12-05 01:48:00,
2013-12-04 17:54:00,40.1,14.0,30.06,SW,220,0.0,0.0,34,0.00,,,0.00,meteobridge,2013-12-05 01:54:00,
2013-12-04 18:00:00,39.6,14.2,30.06,SW,220,0.0,0.0,35,0.00,,,0.00,meteobridge,2013-12-05 02:00:00,
2013-12-04 18:07:00,39.6,14.7,30.06,SW,220,0.0,0.0,36,0.00,,,0.00,meteobridge,2013-12-05 02:07:00,
2013-12-04 18:13:00,39.2,16.3,30.06,NW,311,0.0,0.0,39,0.00,,,0.00,meteobridge,2013-12-05 02:13:00,
2013-12-04 18:19:00,38.7,15.8,30.06,NW,311,0.0,0.0,39,0.00,,,0.00,meteobridge,2013-12-05 02:19:00,
2013-12-04 18:26:00,37.9,17.4,30.06,NW,311,0.0,0.0,43,0.00,,,0.00,meteobridge,2013-12-05 02:26:00,
2013-12-04 18:32:00,37.6,17.1,30.06,NW,311,0.0,0.0,43,0.00,,,0.00,meteobridge,2013-12-05 02:32:00,
2013-12-04 18:38:00,36.5,17.6,30.06,NW,311,0.0,0.0,46,0.00,,,0.00,meteobridge,2013-12-05 02:38:00,
2013-12-04 18:44:00,36.7,19.4,30.06,SW,227,0.0,0.9,49,0.00,,,0.00,meteobridge,2013-12-05 02:44:00,
2013-12-04 18:50:00,36.7,19.4,30.06,SW,227,0.0,0.0,49,0.00,,,0.00,meteobridge,2013-12-05 02:50:00,
2013-12-04 18:57:00,36.5,18.7,30.06,SW,227,0.0,0.0,48,0.00,,,0.00,meteobridge,2013-12-05 02:57:00,
2013-12-04 19:03:00,36.1,18.9,30.06,SW,227,0.0,0.0,49,0.00,,,0.00,meteobridge,2013-12-05 03:03:00,
2013-12-04 19:09:00,35.8,18.5,30.06,SW,227,0.0,0.0,49,0.00,,,0.00,meteobridge,2013-12-05 03:09:00,
2013-12-04 19:15:00,35.2,18.5,30.07,SW,227,0.0,0.0,50,0.00,,,0.00,meteobridge,2013-12-05 03:15:00,
2013-12-04 19:22:00,35.1,19.6,30.07,SW,229,0.0,0.9,53,0.00,,,0.00,meteobridge,2013-12-05 03:22:00,
2013-12-04 19:28:00,34.9,19.9,30.07,SW,229,0.0,0.0,54,0.00,,,0.00,meteobridge,2013-12-05 03:28:00,
2013-12-04 19:34:00,34.3,19.0,30.07,SW,229,0.0,0.0,53,0.00,,,0.00,meteobridge,2013-12-05 03:34:00,
2013-12-04 19:40:00,33.6,19.2,30.07,SW,229,0.0,0.0,55,0.00,,,0.00,meteobridge,2013-12-05 03:40:00,
2013-12-04 19:46:00,33.4,19.8,30.08,SW,229,0.0,0.0,57,0.00,,,0.00,meteobridge,2013-12-05 03:46:00,
2013-12-04 19:53:00,33.6,19.6,30.08,SW,229,0.0,0.0,56,0.00,,,0.00,meteobridge,2013-12-05 03:53:00,
2013-12-04 19:59:00,33.1,19.0,30.08,SW,229,0.0,0.0,56,0.00,,,0.00,meteobridge,2013-12-05 03:59:00,
2013-12-04 20:05:00,32.4,19.6,30.08,SW,229,0.0,0.0,59,0.00,,,0.00,meteobridge,2013-12-05 04:05:00,
2013-12-04 20:11:00,31.8,19.9,30.09,SW,229,0.0,0.0,61,0.00,,,0.00,meteobridge,2013-12-05 04:11:00,
2013-12-04 20:17:00,31.8,20.7,30.09,SW,229,0.0,0.0,63,0.00,,,0.00,meteobridge,2013-12-05 04:17:00,
2013-12-04 20:24:00,32.4,20.8,30.09,SW,229,0.0,0.0,62,0.00,,,0.00,meteobridge,2013-12-05 04:24:00,
2013-12-04 20:30:00,32.4,20.8,30.09,SW,229,0.0,0.0,62,0.00,,,0.00,meteobridge,2013-12-05 04:30:00,
2013-12-04 20:36:00,32.0,20.8,30.09,SW,229,0.0,0.0,63,0.00,,,0.00,meteobridge,2013-12-05 04:36:00,
2013-12-04 20:42:00,31.6,20.5,30.09,SW,229,0.0,0.0,63,0.00,,,0.00,meteobridge,2013-12-05 04:42:00,
2013-12-04 20:48:00,31.6,20.5,30.10,SW,229,0.0,0.0,63,0.00,,,0.00,meteobridge,2013-12-05 04:48:00,
2013-12-04 20:55:00,31.5,21.0,30.10,SW,229,0.0,0.0,65,0.00,,,0.00,meteobridge,2013-12-05 04:55:00,
2013-12-04 21:01:00,31.5,20.7,30.10,SW,229,0.0,0.0,64,0.00,,,0.00,meteobridge,2013-12-05 05:01:00,
2013-12-04 21:03:00,31.3,20.8,30.10,SW,229,0.0,0.0,65,0.00,,,0.00,meteobridge,2013-12-05 05:03:00,
2013-12-04 21:07:00,31.3,21.2,30.10,SW,229,0.0,0.0,66,0.00,,,0.00,meteobridge,2013-12-05 05:07:00,
2013-12-04 21:11:00,30.9,21.2,30.10,SW,229,0.0,0.0,67,0.00,,,0.00,meteobridge,2013-12-05 05:11:00,
2013-12-04 21:17:00,30.6,21.2,30.10,SW,229,0.0,0.0,68,0.00,,,0.00,meteobridge,2013-12-05 05:17:00,
2013-12-04 21:20:00,30.4,21.0,30.10,SW,229,0.0,0.0,68,0.00,,,0.00,meteobridge,2013-12-05 05:20:00,
2013-12-04 21:26:00,29.8,20.8,30.10,SW,229,0.0,0.0,69,0.00,,,0.00,meteobridge,2013-12-05 05:26:00,
2013-12-04 21:32:00,29.8,21.2,30.10,SW,229,0.0,0.9,70,0.00,,,0.00,meteobridge,2013-12-05 05:32:00,
2013-12-04 21:38:00,29.8,20.8,30.10,SW,229,0.0,0.0,69,0.00,,,0.00,meteobridge,2013-12-05 05:38:00,
2013-12-04 21:44:00,29.7,20.7,30.11,SW,229,0.0,0.0,69,0.00,,,0.00,meteobridge,2013-12-05 05:44:00,
2013-12-04 21:50:00,29.5,21.2,30.11,SW,229,0.0,0.9,71,0.00,,,0.00,meteobridge,2013-12-05 05:50:00,
2013-12-04 21:57:00,29.3,20.7,30.11,SW,228,0.0,0.0,70,0.00,,,0.00,meteobridge,2013-12-05 05:57:00,
2013-12-04 22:03:00,29.1,20.5,30.11,NW,305,0.0,0.0,70,0.00,,,0.00,meteobridge,2013-12-05 06:03:00,
2013-12-04 22:09:00,28.9,20.7,30.11,NW,304,0.0,0.0,71,0.00,,,0.00,meteobridge,2013-12-05 06:09:00,
2013-12-04 22:15:00,28.6,20.3,30.11,NW,304,0.0,0.0,71,0.00,,,0.00,meteobridge,2013-12-05 06:15:00,
2013-12-04 22:21:00,28.6,20.7,30.11,NW,304,0.0,0.0,72,0.00,,,0.00,meteobridge,2013-12-05 06:21:00,
2013-12-04 22:28:00,28.8,21.2,30.11,NW,304,0.0,0.0,73,0.00,,,0.00,meteobridge,2013-12-05 06:28:00,
2013-12-04 22:34:00,28.6,20.7,30.11,NW,304,0.0,0.0,72,0.00,,,0.00,meteobridge,2013-12-05 06:34:00,
2013-12-04 22:40:00,28.0,20.8,30.11,NW,304,0.0,0.0,74,0.00,,,0.00,meteobridge,2013-12-05 06:40:00,
2013-12-04 22:46:00,28.0,21.2,30.12,NW,304,0.0,0.0,75,0.00,,,0.00,meteobridge,2013-12-05 06:46:00,
2013-12-04 22:52:00,27.9,21.0,30.12,NW,304,0.0,0.0,75,0.00,,,0.00,meteobridge,2013-12-05 06:52:00,
2013-12-04 22:59:00,27.7,21.0,30.12,NW,304,0.0,0.0,76,0.00,,,0.00,meteobridge,2013-12-05 06:59:00,
2013-12-04 23:05:00,27.7,20.8,30.12,NW,304,0.0,0.0,75,0.00,,,0.00,meteobridge,2013-12-05 07:05:00,
2013-12-04 23:11:00,27.5,20.3,30.12,NW,304,0.0,0.0,74,0.00,,,0.00,meteobridge,2013-12-05 07:11:00,
2013-12-04 23:17:00,27.5,20.3,30.12,NW,304,0.0,0.0,74,0.00,,,0.00,meteobridge,2013-12-05 07:17:00,
2013-12-04 23:24:00,27.3,20.1,30.12,NW,304,0.0,0.0,74,0.00,,,0.00,meteobridge,2013-12-05 07:24:00,
2013-12-04 23:30:00,27.0,20.1,30.12,NW,304,0.0,0.0,75,0.00,,,0.00,meteobridge,2013-12-05 07:30:00,
2013-12-04 23:36:00,27.1,20.7,30.12,NW,304,0.0,0.0,76,0.00,,,0.00,meteobridge,2013-12-05 07:36:00,
2013-12-04 23:42:00,27.3,20.5,30.12,NW,304,0.0,0.0,75,0.00,,,0.00,meteobridge,2013-12-05 07:42:00,
2013-12-04 23:48:00,27.1,20.3,30.12,NW,304,0.0,0.0,75,0.00,,,0.00,meteobridge,2013-12-05 07:48:00,
2013-12-04 23:54:00,26.8,20.3,30.12,NW,304,0.0,0.0,76,0.00,,,0.00,meteobridge,2013-12-05 07:54:00,